Location: Trout Lake
(45.9980°N, 121.5270°W)
Time: 19:59:49
(UTC-08:00)

Lacrosse 5 - Pass Details

Date: 06 December 2023
Orbit: 714 x 724 km, 57.0° (Epoch: 09 March)

Event Time Altitude Azimuth Distance (km) Brightness Sun altitude
Rises 18:27:17 0° 236° (SW) 3,105 6.3 -21.1°
Reaches altitude 10° 18:29:40 10° 239° (WSW) 2,188 5.4 -21.5°
Maximum altitude 18:34:41 71° 323° (NW) 758 2.0 -22.3°
Enters shadow 18:36:03 47° 31° (NNE) 942 2.1 -22.6°
